Temp
-17 -17 -17 -17 -17 -17 -16 -16 -16 -16 -16 -17 -17 -17 -17 -16 -16 -16 -15 -15 -15 -16 -16 -16 -16 -16 -16 -16 -16 -16 -16 -16 -16 -16 -16 -16 -17 -17
-18 -18 -17 -18 -18 -18 -18 -17 -17 -16 -16 -18 -18 -18 -18 -18 -17 -17 -17 -17 -17 -17 -17 -17 -17 -17 -17 -17 -17 -17 -17 -17 -17 -17 -17 -17 -17 -17
-19 -18 -18 -18 -19 -18 -18 -18 -18 -18 -17 -18 -18 -18 -18 -18 -18 -18 -18 -18 -18 -18 -18 -18 -18 -18 -18 -18 -18 -18 -18 -18 -18 -18 -18 -18 -18 -18
-20 -20 -20 -20 -20 -20 -20 -20 -19 -19 -19 -18 -19 -19 -19 -19 -19 -19 -19 -19 -18 -18 -18 -19 -19 -19 -19 -19 -19 -19 -19 -19 -18 -18 -18 -18 -18 -18
-21 -21 -22 -22 -21 -21 -21 -21 -21 -21 -20 -20 -19 -20 -20 -20 -20 -20 -20 -20 -20 -20 -20 -19 -19 -19 -19 -19 -19 -19 -19 -19 -19 -19 -19 -19 -18 -19
-23 -23 -23 -23 -22 -22 -22 -22 -22 -22 -22 -21 -21 -21 -20 -21 -21 -21 -21 -22 -22 -22 -21 -21 -21 -21 -21 -21 -20 -20 -20 -20 -19 -19 -19 -19 -19 -19
-23 -24 -24 -23 -23 -23 -23 -23 -23 -23 -23 -23 -23 -23 -23 -23 -23 -23 -22 -23 -23 -23 -23 -23 -23 -23 -23 -22 -22 -22 -21 -21 -21 -20 -20 -20 -20 -20
-24 -24 -24 -24 -24 -24 -24 -24 -24 -24 -24 -24 -24 -24 -24 -24 -23 -23 -23 -23 -23 -23 -23 -23 -23 -23 -23 -23 -23 -23 -22 -22 -21 -21 -21 -21 -21 -20
-25 -25 -25 -25 -25 -25 -25 -25 -25 -25 -25 -25 -25 -25 -25 -25 -24 -24 -24 -23 -23 -23 -23 -22 -23 -22 -22 -22 -22 -22 -22 -21 -21 -21 -21 -21 -21 -21
-25 -25 -25 -25 -25 -25 -25 -25 -25 -25 -25 -25 -25 -25 -25 -25 -25 -25 -24 -24 -23 -23 -24 -22 -23 -22 -22 -22 -23 -23 -22 -22 -22 -22 -22 -21 -21 -21
-25 -25 -25 -25 -25 -25 -25 -25 -25 -25 -26 -26 -26 -26 -26 -26 -26 -26 -25 -25 -24 -24 -25 -24 -24 -24 -24 -25 -26 -26 -25 -24 -24 -23 -23 -23 -23 -22
-25 -25 -26 -26 -25 -25 -26 -26 -26 -27 -27 -27 -28 -28 -28 -28 -28 -28 -28 -27 -27 -26 -28 -28 -28 -28 -27 -29 -30 -30 -29 -28 -28 -27 -26 -25 -25 -24
-25 -26 -26 -26 -26 -27 -27 -28 -28 -28 -28 -29 -29 -29 -29 -29 -30 -30 -30 -30 -30 -30 -31 -31 -31 -31 -31 -31 -31 -31 -31 -30 -29 -29 -28 -28 -28 -28
-26 -26 -27 -27 -28 -29 -30 -30 -30 -30 -30 -30 -30 -30 -30 -30 -31 -32 -32 -32 -32 -31 -31 -32 -31 -31 -32 -32 -32 -32 -33 -32 -31 -31 -31 -30 -31 -30
-28 -28 -29 -29 -30 -30 -31 -31 -31 -31 -31 -31 -31 -31 -31 -32 -32 -32 -32 -32 -31 -32 -32 -32 -32 -32 -32 -33 -33 -33 -33 -33 -32 -32 -32 -32 -32 -32
-30 -30 -30 -31 -31 -31 -31 -32 -32 -32 -32 -31 -32 -32 -32 -32 -32 -32 -32 -32 -32 -32 -32 -32 -33 -33 -33 -33 -33 -33 -33 -32 -32 -32 -32 -32 -32 -32
-31 -31 -32 -32 -32 -32 -32 -33 -33 -32 -33 -32 -32 -32 -32 -32 -32 -32 -32 -32 -32 -32 -33 -33 -33 -33 -33 -33 -33 -32 -32 -32 -32 -32 -32 -31 -31 -31
-32 -32 -32 -32 -32 -32 -33 -33 -33 -33 -33 -33 -32 -32 -32 -32 -32 -32 -32 -32 -32 -32 -32 -32 -32 -32 -32 -32 -32 -32 -32 -32 -31 -31 -31 -31 -30 -30
-33 -33 -32 -32 -33 -33 -33 -33 -33 -33 -32 -32 -32 -32 -32 -32 -31 -32 -31 -31 -31 -31 -31 -31 -31 -31 -31 -31 -31 -30 -30 -30 -30 -30 -30 -30 -30 -30
-33 -33 -33 -33 -33 -33 -33 -33 -32 -32 -32 -32 -32 -32 -32 -32 -31 -31 -31 -31 -31 -30 -30 -30 -30 -30 -30 -30 -30 -30 -30 -30 -30 -30 -29 -29 -29 -29
-34 -33 -33 -33 -33 -32 -32 -32 -32 -32 -32 -32 -32 -32 -32 -31 -31 -31 -30 -30 -30 -30 -30 -30 -30 -30 -30 -30 -30 -29 -29 -29 -29 -29 -29 -29 -29 -29
-34 -33 -33 -32 -32 -32 -32 -32 -32 -32 -32 -32 -32 -32 -31 -31 -31 -30 -30 -30 -30 -30 -30 -30 -30 -30 -30 -29 -29 -29 -29 -29 -29 -29 -29 -29 -29 -29
-33 -32 -32 -32 -32 -32 -32 -32 -32 -32 -32 -32 -31 -31 -31 -31 -31 -30 -30 -30 -30 -30 -30 -30 -30 -29 -29 -29 -29 -29 -29 -29 -29 -29 -29 -29 -29 -29
Height
5642 5638 5635 5631 5626 5623 5621 5619 5618 5620 5621 5617 5613 5611 5609 5608 5606 5606 5606 5606 5606 5606 5606 5606 5607 5608 5609 5611 5612 5613 5614 5616 5618 5620 5622 5624 5626 5629
5627 5623 5619 5615 5611 5608 5605 5601 5599 5598 5601 5601 5600 5596 5593 5591 5590 5589 5586 5586 5586 5586 5586 5586 5587 5587 5588 5590 5591 5592 5594 5595 5598 5600 5603 5605 5608 5611
5610 5607 5602 5598 5593 5589 5586 5583 5580 5577 5577 5581 5578 5576 5576 5573 5571 5570 5569 5568 5566 5564 5564 5565 5566 5566 5566 5566 5568 5570 5572 5574 5577 5580 5582 5585 5588 5591
5593 5589 5584 5580 5576 5572 5568 5565 5562 5558 5557 5557 5557 5554 5551 5549 5549 5549 5548 5547 5546 5545 5544 5543 5543 5544 5544 5544 5544 5545 5547 5550 5553 5556 5559 5564 5567 5570
5575 5571 5566 5563 5560 5556 5552 5548 5544 5541 5537 5537 5536 5534 5533 5530 5528 5526 5525 5525 5524 5524 5523 5522 5521 5522 5522 5523 5523 5524 5525 5527 5530 5533 5536 5539 5543 5547
5559 5554 5550 5546 5542 5539 5535 5531 5528 5524 5521 5518 5515 5513 5512 5510 5508 5507 5507 5504 5503 5500 5500 5498 5498 5498 5498 5498 5498 5499 5501 5503 5506 5509 5512 5516 5518 5523
5544 5539 5535 5530 5526 5522 5519 5515 5511 5508 5504 5501 5498 5494 5490 5486 5484 5485 5485 5484 5485 5482 5480 5478 5476 5475 5474 5472 5472 5472 5474 5477 5480 5484 5488 5491 5494 5498
5532 5526 5521 5516 5511 5507 5503 5499 5495 5491 5487 5482 5479 5476 5472 5467 5463 5459 5457 5456 5459 5457 5453 5456 5449 5452 5450 5446 5445 5445 5447 5450 5453 5457 5460 5464 5467 5470
5518 5512 5507 5501 5495 5491 5487 5482 5477 5472 5465 5460 5457 5454 5449 5445 5440 5436 5431 5428 5428 5426 5416 5424 5421 5422 5417 5417 5413 5413 5416 5420 5424 5427 5430 5434 5438 5442
5503 5496 5490 5485 5477 5472 5468 5463 5457 5451 5443 5437 5431 5427 5421 5416 5412 5408 5403 5401 5401 5400 5385 5388 5388 5390 5386 5386 5382 5380 5382 5387 5390 5392 5395 5399 5404 5410
5485 5478 5469 5464 5457 5449 5443 5438 5434 5429 5419 5414 5408 5403 5397 5393 5386 5378 5375 5370 5372 5374 5361 5357 5361 5359 5359 5360 5354 5350 5352 5356 5358 5360 5362 5367 5371 5376
5466 5458 5448 5439 5434 5426 5418 5411 5406 5401 5395 5391 5387 5381 5375 5369 5364 5355 5350 5347 5346 5348 5342 5336 5337 5333 5337 5337 5334 5330 5329 5330 5333 5334 5335 5336 5341 5345
5444 5437 5427 5417 5409 5401 5393 5386 5380 5375 5371 5366 5363 5361 5356 5350 5344 5339 5334 5330 5329 5329 5327 5322 5324 5322 5318 5321 5321 5317 5315 5313 5313 5312 5313 5314 5317 5320
5418 5411 5404 5396 5388 5380 5373 5366 5360 5355 5351 5347 5344 5341 5337 5333 5328 5325 5322 5320 5318 5318 5316 5312 5311 5310 5308 5308 5308 5305 5303 5301 5301 5300 5300 5301 5303 5306
5389 5385 5379 5374 5368 5363 5357 5350 5345 5340 5336 5333 5329 5326 5321 5319 5318 5316 5314 5311 5310 5307 5305 5303 5301 5300 5298 5297 5297 5297 5297 5296 5295 5296 5296 5297 5299 5300
5366 5363 5359 5355 5350 5345 5341 5336 5330 5325 5321 5318 5316 5313 5312 5311 5309 5306 5305 5302 5300 5298 5295 5293 5292 5292 5291 5291 5291 5291 5291 5292 5292 5292 5292 5293 5295 5296
5348 5345 5342 5338 5334 5329 5326 5322 5317 5313 5309 5306 5306 5305 5304 5302 5300 5298 5296 5294 5292 5291 5289 5287 5287 5287 5286 5285 5285 5285 5286 5287 5287 5288 5288 5289 5291 5293
5331 5328 5326 5322 5318 5314 5311 5308 5305 5301 5299 5299 5298 5298 5296 5295 5294 5292 5290 5288 5285 5283 5283 5282 5282 5282 5282 5282 5281 5281 5281 5282 5284 5284 5285 5287 5289 5292
5315 5313 5310 5305 5302 5299 5297 5296 5295 5294 5293 5292 5291 5290 5290 5289 5289 5288 5286 5285 5283 5282 5281 5280 5280 5279 5279 5279 5279 5279 5279 5280 5281 5282 5283 5285 5287 5290
5301 5299 5296 5293 5291 5289 5288 5289 5289 5287 5286 5285 5285 5285 5285 5286 5286 5285 5284 5282 5281 5280 5280 5279 5278 5278 5277 5277 5277 5277 5277 5278 5278 5280 5282 5283 5285 5288
5290 5288 5286 5284 5283 5283 5283 5283 5282 5281 5281 5281 5280 5281 5282 5283 5282 5282 5281 5281 5280 5280 5279 5278 5277 5276 5276 5275 5275 5275 5275 5275 5276 5277 5278 5280 5281 5284
5281 5280 5279 5278 5278 5278 5277 5277 5277 5277 5278 5278 5279 5280 5281 5281 5280 5280 5280 5280 5280 5280 5279 5277 5276 5275 5275 5274 5273 5272 5272 5273 5273 5274 5274 5276 5277 5279
5278 5277 5276 5274 5274 5273 5273 5274 5274 5275 5276 5278 5279 5280 5280 5280 5280 5280 5280 5280 5279 5279 5278 5278 5277 5276 5276 5275 5274 5273 5272 5272 5272 5272 5273 5273 5275 5276
Wind_Speed
63 62 61 60 58 59 59 59 58 55 52 53 58 60 63 65 66 67 68 68 67 67 67 66 65 65 64 63 63 63 63 62 62 62 62 61 60 59
64 62 61 61 60 61 60 61 62 64 62 56 57 60 61 62 64 66 68 68 68 69 69 69 69 68 68 67 67 66 66 66 65 65 64 64 63 63
65 65 63 61 58 59 61 61 62 64 65 63 63 62 63 65 66 67 67 69 71 72 71 70 70 70 71 71 71 70 69 69 68 68 68 67 67 67
63 62 61 61 61 61 61 61 62 64 64 63 62 62 62 63 63 64 65 67 69 71 72 73 72 72 73 74 74 74 74 74 73 73 72 72 72 71
60 60 59 59 60 61 60 60 61 63 64 65 65 65 64 64 64 64 64 64 65 66 67 69 70 72 73 74 75 76 76 76 76 76 76 76 75 74
54 54 55 56 56 56 57 58 59 59 60 61 62 64 65 64 63 63 62 63 63 64 66 68 69 71 72 73 75 76 77 78 78 79 79 79 78 78
53 52 52 52 53 53 53 53 54 55 56 57 59 60 62 63 64 64 64 64 63 65 65 67 69 71 72 73 74 76 77 78 79 80 80 81 81 81
49 50 52 54 56 57 57 58 58 59 60 62 63 65 66 69 71 73 74 75 74 74 77 76 79 78 80 82 83 84 83 83 83 83 82 82 83 83
53 54 56 58 61 62 64 65 66 67 70 72 73 73 75 76 78 80 82 83 84 85 89 86 87 87 88 89 91 91 92 91 91 91 91 90 89 88
60 61 63 64 67 69 69 69 70 73 77 80 82 82 82 83 85 86 87 87 84 83 87 86 84 83 85 86 86 88 89 88 88 89 90 91 92 93
69 70 72 73 76 78 78 77 78 79 80 81 82 83 84 85 85 87 85 85 82 76 74 77 73 74 73 71 70 71 75 77 78 81 83 83 83 84
74 75 78 81 82 81 82 83 83 81 79 78 77 76 74 72 68 68 68 68 66 63 56 58 56 57 55 47 45 50 56 58 60 62 64 68 68 70
79 80 81 81 80 80 78 76 72 70 68 66 64 59 55 55 56 54 52 52 49 44 38 41 38 38 40 36 38 43 47 47 45 45 47 51 55 58
83 80 76 74 73 68 63 61 61 60 59 58 55 53 52 48 42 36 34 34 35 34 34 37 36 36 37 37 35 31 30 30 26 25 29 33 34 37
74 70 67 62 58 57 55 55 54 53 53 53 53 48 38 27 26 28 32 34 32 33 33 34 35 31 29 29 23 21 20 15 16 15 13 15 15 17
63 60 58 54 52 52 52 50 50 51 52 50 43 27 24 26 29 32 30 31 29 25 28 27 22 23 23 24 19 19 20 17 17 18 22 22 22 21
58 55 51 49 50 51 49 47 47 48 44 36 23 24 27 28 27 26 23 21 19 21 20 21 20 20 19 15 16 20 20 18 20 16 17 18 17 17
51 48 46 50 51 48 44 42 40 34 26 25 26 27 25 22 18 17 19 22 21 17 17 14 13 13 11 12 14 15 15 16 15 13 15 15 17 15
42 44 48 48 42 37 34 30 20 22 24 25 24 19 16 14 11 13 13 10 8 7 7 9 10 11 14 16 11 11 9 8 11 12 14 14 15 15
41 44 39 34 29 26 18 17 19 20 20 18 15 13 11 9 11 11 9 9 7 8 8 8 8 9 10 10 10 10 12 13 13 13 14 15 16 17
37 32 30 24 15 14 16 17 17 16 13 11 10 6 6 7 9 7 7 5 3 5 7 8 9 9 11 12 13 14 16 16 16 17 18 19 21 22
28 24 15 15 17 17 16 13 11 9 8 5 4 4 5 6 4 4 4 3 4 6 6 7 5 2 2 3 4 7 10 11 11 12 13 14 15 16
13 16 17 17 15 11 9 7 6 3 4 3 2 1 2 3 3 3 4 5 5 7 6 6 6 5 4 5 6 6 6 3 3 6 7 8 8 9
Wind_Direction
290 288 287 286 283 281 281 280 275 268 265 265 265 265 265 267 268 267 266 266 266 267 267 266 266 265 265 265 265 264 263 263 262 262 263 263 262 261
291 291 291 289 286 283 280 279 278 277 274 273 269 269 269 269 268 270 271 271 269 269 269 269 268 267 266 264 262 262 261 261 261 261 260 260 259 257
291 291 289 286 284 283 282 280 279 278 276 276 276 274 272 271 270 270 269 270 272 272 271 269 268 267 266 265 264 262 260 260 260 259 259 259 258 257
291 289 288 287 285 284 283 282 281 281 279 277 277 277 278 276 274 272 270 269 269 268 268 268 267 266 265 265 264 264 263 262 261 259 258 258 258 257
292 293 293 292 292 291 290 289 288 286 285 283 281 280 280 281 281 279 277 275 273 271 269 268 267 267 266 264 264 263 262 262 262 261 260 259 257 256
293 293 292 291 290 290 290 289 288 287 286 285 284 283 282 280 278 276 275 275 275 274 273 271 269 268 266 265 264 263 262 261 260 259 259 259 258 257
298 298 298 297 296 294 293 292 291 290 289 287 286 285 284 283 281 279 277 275 274 273 272 271 272 270 269 268 266 264 263 263 262 261 260 259 259 258
300 301 301 300 298 297 295 294 292 290 288 287 286 284 283 283 282 280 279 277 276 275 273 271 271 268 268 268 267 266 265 264 263 261 259 258 258 257
298 298 300 300 299 297 295 294 292 290 288 286 285 285 284 284 283 281 281 280 279 278 278 273 274 273 272 271 270 269 267 266 264 263 262 261 259 258
300 300 299 299 300 299 297 295 295 294 290 288 288 288 288 288 287 287 286 285 283 282 282 278 277 275 273 272 272 271 269 268 267 265 263 262 260 259
300 298 297 297 298 298 297 295 294 291 287 286 286 286 286 287 288 288 288 286 285 284 282 281 279 277 276 275 274 273 271 270 268 267 265 264 262 261
299 298 296 296 297 297 296 294 291 289 288 287 287 288 290 290 289 288 287 286 285 283 283 282 281 280 277 276 273 271 272 271 269 268 266 265 262 260
299 297 296 296 295 293 291 292 292 291 291 291 291 293 292 291 289 288 285 284 283 285 284 283 281 280 281 276 272 276 278 277 274 266 261 256 253 252
297 296 294 291 290 292 292 293 293 292 292 293 295 296 295 292 286 280 281 283 286 287 282 281 282 281 281 282 284 276 273 273 266 260 258 254 250 249
293 293 292 292 291 292 292 291 292 292 293 294 296 296 292 283 280 283 286 286 284 284 282 279 280 280 282 284 269 259 272 253 264 259 242 237 253 247
293 293 293 292 292 292 293 292 292 293 294 295 296 290 287 290 292 290 287 287 287 281 286 282 272 278 285 276 273 264 260 259 256 263 257 248 253 251
289 290 290 291 293 293 290 289 290 292 292 293 289 289 290 293 291 291 294 293 288 283 282 282 274 270 279 275 271 263 247 255 251 261 250 239 234 229
288 288 290 293 294 292 290 289 290 288 283 284 284 286 288 286 288 292 302 302 294 283 279 277 270 273 257 278 290 289 258 251 243 246 238 237 224 232
289 293 296 296 294 291 290 291 280 279 280 282 287 288 283 279 281 298 305 311 320 303 285 289 296 289 285 284 269 251 260 253 252 242 233 236 231 227
294 298 297 296 295 292 284 281 284 285 284 291 292 281 266 274 285 299 282 295 297 304 305 305 299 288 285 281 270 253 255 255 247 239 235 233 232 228
298 297 300 298 288 285 291 292 290 287 297 294 286 248 250 283 304 269 293 291 312 329 326 315 302 287 278 276 273 266 262 259 255 251 249 247 247 247
299 303 301 297 298 298 295 293 290 295 286 265 216 228 279 306 295 280 303 305 309 331 348 359 355 328 303 340 333 279 262 260 257 255 252 249 247 243
315 308 302 301 303 301 296 290 290 258 173 170 190 306 319 14 39 9 329 315 316 334 351 354 3 17 20 7 6 19 28 18 260 237 232 232 228 227